THOR ABLESTAR DEB, 337

Orbit data source: Space-Track

THOR ABLESTAR DEB, 337 is space debris in LEO originally from a launch on Thu, 29 Jun 1961 UTC launched from the Air Force Eastern Test Range (AFETR). Debris objects in space refer to the collection of defunct objects orbiting the Earth. Examples of debris include non-operational satellites, rocket bodies, and fragments generated from explosions, collisions, or faulty payload assembly.

Loading next visibility...
THOR ABLESTAR DEB details
Identifier
337, 1961-015DP
Orbit
LEO
Last TLE update17 hours ago
Origin
Flag of USUSAF SSD (US)
ManufacturerUnknown
MissionSpacecraft
Bus & MotorUnknown
MassUnknown
Launch date (UTC)
1961-06-29 (64 years ago)
Launch vehicleUnknown
Launch site
Air Force Eastern Test Range (AFETR)
Object type
Payload
Rocket body
Debris
Shape & HBRUnknown
Radar Cross SectionSmall (<0.1 m²)

Expand to show TLE details & history

TLE from 17 hours ago
0 THOR ABLESTAR DEB
1 00337U 61015DP  25014.51452630  .00000734  00000-0  79687-3 0  9998
2 00337  67.0089  67.3534 0107766 273.3571  85.5179 13.75889841173413
Epoch: 2025-01-14T12:20Z
Definitive object data (Epoch: 2025-01-14T12:20:55.072Z)
Latitude0.00001°
Longitude127.90381°
Altitude975.232 km
Speed7.367 km/s
True Right ascension04h 29m 24s
True Declination0° 00' 00"
Sunlit
Object was in full shadow at TLE epoch
Visualization TLE readout
Latitude-53.03784°
Longitude-19.63902°
Altitude931.426 km
Speed7.419 km/s
Apparent Right ascension18h 14m 36s
Apparent Declination-46° 53' 53"
Sunlit
Object is in daylight
Visualization observer readout
Local Sidereal Time05:52:27
Azimuth208.067° SW
Elevation-81.948°
Doppler factor1
Orbital elements
Apogee altitude1,056.144 km
Perigee altitude897.62 km
Semi-major axis7,355.019 km
Eccentricity0.0107766
Inclination67.0089°
RAAN67.3534°
Arg. of periapsis273.3571°
True anomaly86.75023°
Mean anomaly85.5179°
Eccentric anomaly86.13395°
Mean motion3.44086 °/min
BSTAR0.00079687
Orbital period104.62 mins
Loading maneuver chart data...

THOR ABLESTAR DEB Visibility forecast

Observer location: undefined°, undefined

Span
Click to sort rows by Start time (UTC) header in descending order
Start Az.
Max El. time (UTC)
Max El. Az.
Max El.
End time (UTC)
End Az.
12 mins2025-01-15 05:56:17.037Z239.654° WSW2025-01-15 06:02:17.037Z307.409° NW32.696°2025-01-15 06:08:17.037Z15.313° NNE
10 mins2025-01-15 13:20:17.037Z350.239° N2025-01-15 13:25:17.037Z62.797° ENE34.031°2025-01-15 13:30:17.037Z120.595° SE
9 mins2025-01-15 15:08:17.037Z305.347° NW2025-01-15 15:12:17.037Z253.236° W30.413°2025-01-15 15:17:17.037Z192.355° SSW
11 mins2025-01-16 04:36:17.037Z197.633° SSW2025-01-16 04:41:17.037Z93.081° ESE43.888°2025-01-16 04:47:17.037Z32.298° NE
|